FW6138 Weather Reports


Display with metric or nautical units.
time (UTC)temp
F
wind
direction
speed
MPH
gust
MPH
rain 1hr
in
rain 24hr
in
rain mn
in
humidity
%
barometer
mb
20260506134533 48 156 0.0 3.0 0.00 0.00 0.00 96 1019.7
20260506133032 48 181 0.0 3.0 0.00 0.00 0.00 96 1019.7
20260506131531 48 177 1.0 4.0 0.00 0.00 0.00 96 1019.7
20260506130037 48 265 2.0 6.0 0.00 0.00 0.00 96 1019.6
20260506124650 47 190 1.0 7.0 0.00 0.00 0.00 96 1019.4
20260506123031 47 245 1.0 5.0 0.00 0.00 0.00 95 1019.3
20260506121608 47 173 0.0 4.0 0.00 0.00 0.00 95 1019.2
20260506120029 47 135 1.0 4.0 0.00 0.00 0.00 95 1019.1
20260506114534 48 149 1.0 4.0 0.00 0.00 0.00 95 1019.0
20260506113028 48 151 2.0 4.0 0.00 0.00 0.00 95 1018.8
20260506111538 48 220 1.0 3.0 0.00 0.00 0.00 95 1018.7
20260506110033 49 173 1.0 4.0 0.00 0.00 0.00 95 1018.5
20260506104605 48 193 2.0 4.0 0.00 0.00 0.00 94 1018.4
20260506101606 49 157 0.0 3.0 0.00 0.00 0.00 94 1018.1
20260506100106 49 226 2.0 5.0 0.00 0.00 0.00 93 1018.2
20260506094539 49 188 1.0 4.0 0.00 0.00 0.00 93 1018.1
20260506093029 50 182 1.0 4.0 0.00 0.00 0.00 93 1018.0
20260506091529 51 228 2.0 6.0 0.00 0.00 0.00 94 1018.1
20260506090033 51 209 2.0 5.0 0.00 0.00 0.00 94 1018.0
20260506083028 50 179 1.0 4.0 0.00 0.00 0.00 94 1017.8
20260506081530 50 193 0.0 4.0 0.00 0.00 0.00 94 1017.7
20260506073113 49 252 1.0 5.0 0.00 0.00 0.00 93 1017.3
20260506071528 49 255 0.0 2.0 0.00 0.00 0.00 93 1017.2
20260506070106 50 261 0.0 2.0 0.00 0.00 0.00 92 1017.1
20260506061531 50 205 0.0 3.0 0.00 0.00 0.00 91 1016.8
20260506044543 53 246 0.0 2.0 0.00 0.00 0.00 85 1016.0
20260506041530 56 209 0.0 3.0 0.00 0.00 0.00 78 1015.7
20260506040039 59 247 0.0 2.0 0.00 0.00 0.00 74 1015.4
20260506034545 60 314 2.0 6.0 0.00 0.00 0.00 72 1015.1
20260506033030 61 312 3.0 7.0 0.00 0.00 0.00 71 1014.8
20260506031546 62 303 3.0 6.0 0.00 0.00 0.00 69 1014.6
20260506030041 64 289 3.0 11.0 0.00 0.00 0.00 66 1014.2
20260506024537 65 293 5.0 11.0 0.00 0.00 0.00 64 1014.1
20260506023029 67 307 5.0 12.0 0.00 0.00 0.00 62 1013.9
20260506021531 68 313 5.0 12.0 0.00 0.00 0.00 61 1013.8
20260506020039 69 317 5.0 8.0 0.00 0.00 0.00 60 1013.5
20260506014531 70 316 5.0 11.0 0.00 0.00 0.00 58 1013.5
20260506013037 70 324 5.0 11.0 0.00 0.00 0.00 57 1013.4
20260506011606 71 346 2.0 6.0 0.00 0.00 0.00 57 1013.4
20260506010031 71 314 4.0 12.0 0.00 0.00 0.00 56 1013.4
20260506003037 72 302 7.0 13.0 0.00 0.00 0.00 55 1013.3
20260506000038 72 296 7.0 12.0 0.00 0.00 0.00 55 1013.5
20260505234539 73 295 6.0 13.0 0.00 0.00 0.00 54 1013.6
20260505231541 72 291 5.0 12.0 0.00 0.00 0.00 56 1013.7
20260505230038 72 289 7.0 17.0 0.00 0.00 0.00 55 1013.8
20260505224538 73 295 6.0 13.0 0.00 0.00 0.00 55 1014.0
20260505223110 72 297 6.0 14.0 0.00 0.00 0.00 56 1014.0
20260505221531 71 297 6.0 12.0 0.00 0.00 0.00 57 1014.2
20260505220036 71 292 8.0 16.0 0.00 0.00 0.00 57 1014.4
20260505211530 71 292 6.0 15.0 0.00 0.00 0.00 57 1014.6
20260505210038 71 293 6.0 14.0 0.00 0.00 0.00 58 1014.7
20260505204537 70 293 6.0 12.0 0.00 0.00 0.00 58 1014.9
20260505203039 70 297 6.0 13.0 0.00 0.00 0.00 59 1015.0
20260505201528 69 302 7.0 14.0 0.00 0.00 0.00 60 1015.1
20260505200038 68 296 6.0 15.0 0.00 0.00 0.00 61 1015.2
20260505194532 67 293 7.0 17.0 0.00 0.00 0.00 62 1015.3
20260505193036 67 302 7.0 14.0 0.00 0.00 0.00 63 1015.4
20260505191537 67 297 7.0 14.0 0.00 0.00 0.00 63 1015.5
20260505190029 66 299 7.0 15.0 0.00 0.00 0.00 64 1015.5
20260505180030 65 296 7.0 15.0 0.00 0.00 0.00 66 1015.7
20260505174536 64 297 7.0 16.0 0.00 0.00 0.00 67 1015.7
20260505173036 63 294 7.0 17.0 0.00 0.00 0.00 68 1015.7
20260505171610 63 292 7.0 14.0 0.00 0.00 0.00 69 1015.7
20260505170042 62 298 8.0 15.0 0.00 0.00 0.00 69 1015.7
20260505163035 61 294 7.0 17.0 0.00 0.00 0.00 71 1015.6
20260505161537 61 292 6.0 14.0 0.00 0.00 0.00 71 1015.7
20260505153036 60 293 5.0 11.0 0.00 0.00 0.00 74 1015.6